Theta_e
351 350 346 349 350 352 353 353 353 354 355 354 351 352 354 355 355 353 354 353 353 352 349 349 349 348 348 345 343 346 347 348 347 348 350 348 347 349 351 351 350 350 351 352 350 348 347 347 346 345 345 346 347 348 347 346 347 348 349 349 347 343 342 345 348 349 349 348 346 342 340 339 337 336 335 336 341 345 346 345 345 347 347 347 348
352 351 349 348 351 353 353 353 352 353 354 354 354 353 354 352 352 352 352 352 351 350 348 348 348 347 346 344 343 345 347 347 348 348 349 348 347 349 351 350 349 349 349 348 347 347 346 346 346 347 346 345 345 346 346 346 346 347 348 348 349 348 343 342 346 348 349 350 348 345 343 340 338 337 337 338 341 344 346 345 344 345 348 347 347
352 352 351 349 351 353 353 353 351 352 352 353 353 353 351 350 351 351 353 351 350 349 349 348 347 345 344 343 343 346 347 347 347 347 348 347 347 349 349 348 347 348 348 346 346 346 345 346 345 346 345 346 346 345 344 343 344 344 347 347 347 348 345 342 342 345 346 348 349 348 348 344 340 339 341 342 343 345 345 346 345 345 348 347 346
354 354 352 349 351 353 353 353 352 351 350 352 353 352 350 350 351 351 354 353 353 352 351 348 345 344 343 344 344 345 346 345 344 346 347 348 349 349 347 345 345 347 348 347 347 346 345 347 346 346 346 347 347 346 345 344 344 344 345 346 346 347 346 343 342 344 342 345 349 347 349 349 345 344 344 345 346 346 344 345 346 346 347 347 345
355 353 351 350 351 352 353 352 352 352 351 352 353 351 350 350 350 350 353 353 354 354 352 349 345 343 342 344 343 343 344 344 344 344 345 347 349 346 346 345 345 347 347 346 346 345 345 347 348 348 348 349 347 346 345 345 346 346 346 346 347 347 347 344 342 343 341 344 349 345 347 350 348 346 345 346 348 346 345 344 345 347 347 346 345
354 352 349 351 352 351 352 352 352 353 352 351 351 350 349 349 349 349 350 351 353 352 351 349 344 342 342 342 342 341 342 344 343 343 345 347 346 344 345 345 345 345 344 343 342 343 345 346 347 348 349 349 348 345 344 345 346 346 346 346 347 348 347 345 343 342 342 347 349 345 345 348 349 348 345 346 348 346 345 345 345 346 346 346 346
353 350 350 353 353 350 350 352 352 353 351 351 350 349 349 349 348 348 349 350 351 349 348 347 343 341 341 341 341 341 342 344 344 343 344 345 343 343 344 343 343 342 341 340 340 341 344 345 346 346 347 348 347 344 343 345 345 346 346 346 347 348 346 345 344 342 342 349 349 345 345 347 350 349 346 345 346 346 345 345 345 345 345 345 346
352 352 352 353 351 349 349 350 351 351 350 349 350 349 349 349 348 349 350 350 350 347 346 345 342 342 342 342 342 344 345 344 344 343 343 343 342 343 343 342 340 339 340 340 340 340 341 344 345 345 346 346 347 344 343 345 345 346 346 345 346 347 346 344 344 345 346 350 349 346 347 348 349 348 346 345 345 344 343 344 345 344 344 345 346
353 354 353 353 350 347 349 350 351 352 350 349 350 349 348 349 349 349 349 350 350 346 346 346 343 343 345 347 347 348 347 343 342 342 342 341 341 342 341 340 339 339 340 340 340 340 341 343 344 345 346 346 347 345 345 345 345 346 346 345 346 347 346 344 345 349 351 350 350 349 349 347 347 347 346 345 345 345 344 344 345 346 344 345 346
353 355 354 354 352 348 349 351 353 352 350 350 350 349 348 349 348 348 348 348 348 346 348 348 346 347 349 350 348 348 348 344 341 341 339 340 341 342 341 340 339 339 340 340 340 341 342 342 343 346 348 348 348 347 346 345 345 346 346 345 345 347 346 347 348 350 352 352 352 351 348 347 348 347 345 344 345 346 347 346 346 346 345 345 346
353 354 354 354 352 348 350 352 353 352 350 350 350 350 349 349 348 348 347 347 346 347 350 349 348 351 351 349 348 350 349 344 341 340 339 339 341 341 340 340 340 340 340 340 340 342 343 343 343 347 350 350 350 349 348 346 347 347 347 346 345 347 346 349 350 349 350 352 353 351 347 347 348 346 343 344 345 347 347 345 346 347 346 345 345
354 354 354 354 350 348 351 352 353 352 350 350 350 350 349 348 349 349 349 348 348 349 350 349 350 353 352 349 349 350 348 343 339 339 338 338 339 340 340 340 340 341 341 341 343 345 344 345 345 348 350 350 350 350 349 348 348 348 348 347 345 347 347 349 351 351 350 350 351 350 348 349 348 344 342 344 345 347 347 346 346 346 346 346 346
354 354 354 353 350 348 348 349 352 352 351 351 351 351 350 349 350 351 352 351 350 349 349 349 350 351 351 349 350 349 345 341 339 341 339 337 339 339 340 340 339 341 343 343 344 345 344 345 345 349 351 351 351 349 349 349 349 348 349 347 344 346 347 349 351 352 351 349 349 350 350 350 348 343 342 344 344 346 346 347 346 345 346 346 346
354 354 354 354 350 345 344 345 349 351 351 352 351 351 350 351 352 352 353 352 351 350 350 352 352 351 350 349 349 347 344 342 342 344 339 336 340 340 341 340 339 341 343 343 343 343 343 345 345 350 352 350 351 350 348 350 350 348 348 345 344 347 349 351 351 352 351 350 348 348 350 350 348 344 343 344 344 346 345 347 346 345 346 346 346
354 354 354 354 351 346 344 343 345 348 350 351 351 350 349 352 353 352 353 353 352 352 353 353 352 351 351 350 348 346 344 343 342 342 338 339 342 340 340 340 339 341 343 344 345 345 345 346 347 351 353 350 350 349 348 351 350 346 346 344 345 347 349 352 352 353 352 350 348 348 350 349 347 345 344 344 344 346 345 347 347 346 346 346 346
353 354 354 354 353 350 347 346 346 347 348 349 350 350 349 351 353 352 353 353 353 354 353 352 351 350 349 348 346 345 344 343 340 339 340 341 341 339 337 338 339 341 344 346 347 348 347 347 346 349 351 350 349 346 346 349 348 346 345 343 345 346 347 351 352 353 352 350 349 350 351 348 345 344 343 344 344 345 345 347 347 346 346 346 346
354 354 354 354 355 354 353 351 348 348 349 349 349 350 350 351 351 351 352 353 353 353 353 351 350 348 347 346 345 344 344 343 341 342 342 340 339 337 336 338 341 343 347 349 348 349 348 346 345 347 348 349 348 345 343 344 345 346 344 343 344 345 347 350 352 353 351 350 350 351 351 349 347 343 343 344 343 344 346 347 347 346 346 346 346
354 354 355 354 355 354 356 354 350 350 350 350 350 349 350 351 351 351 352 353 353 352 351 350 348 348 347 346 345 345 344 343 344 344 341 339 336 336 340 342 346 349 350 351 349 348 349 344 343 346 347 348 348 345 342 340 341 343 342 341 342 346 349 350 352 353 351 351 351 350 350 349 347 345 344 344 343 344 346 346 346 347 347 346 346
354 355 355 354 355 353 356 355 354 355 353 352 352 349 350 352 351 351 351 352 351 349 348 348 347 347 347 346 345 344 345 345 345 342 340 337 336 344 349 346 349 353 352 352 349 347 348 344 342 346 346 346 346 343 341 339 340 341 339 339 343 348 351 351 353 352 352 352 350 350 349 347 346 345 345 344 345 344 344 346 346 346 347 346 346
355 355 355 355 355 355 356 355 356 357 354 355 355 353 351 351 351 351 352 351 350 349 347 348 347 346 347 347 345 346 350 348 345 344 342 338 337 347 351 348 351 353 351 351 347 347 346 343 342 345 344 342 341 340 340 341 341 342 340 342 349 350 349 350 353 352 353 352 351 350 348 346 346 344 345 345 347 345 342 345 346 345 346 346 346
355 355 355 355 356 356 356 356 358 357 356 357 357 356 352 350 352 351 351 350 349 348 347 347 346 346 347 346 346 351 354 351 349 350 350 347 344 345 348 350 351 350 351 348 345 345 343 341 342 342 340 338 339 343 345 347 346 346 344 347 352 351 349 350 351 350 351 351 351 353 348 346 346 343 344 345 347 348 342 340 345 346 346 347 346
355 355 355 356 356 356 355 357 358 357 358 358 358 358 352 351 354 352 350 350 349 348 347 348 350 350 349 348 349 353 354 352 354 355 355 354 351 346 347 349 348 349 348 345 343 343 342 342 341 339 338 338 343 349 351 351 351 350 349 351 352 351 351 351 352 350 349 350 349 351 348 344 346 343 344 345 346 348 345 339 341 344 346 346 345
354 354 355 356 357 356 355 356 356 356 358 357 357 357 354 354 356 355 353 353 351 350 351 351 354 353 352 353 352 353 355 356 357 355 353 353 350 347 348 349 349 349 346 345 345 343 343 342 340 339 341 344 348 351 351 351 350 350 351 351 351 352 353 352 352 350 349 350 348 349 346 342 345 345 344 344 345 348 348 344 340 340 344 345 345
352 353 354 355 355 354 354 355 356 357 359 357 356 356 355 356 357 356 355 355 354 354 354 355 356 354 354 356 353 354 357 358 356 351 348 349 352 351 350 351 350 350 347 349 350 346 346 345 344 345 346 348 348 349 349 349 350 350 350 350 350 352 353 353 352 351 349 350 351 350 345 340 343 346 345 344 344 347 349 347 343 339 341 344 345
352 352 352 354 355 354 355 355 356 359 359 357 356 355 356 356 355 357 356 355 355 355 354 356 359 358 357 357 353 356 357 355 354 352 350 351 354 353 351 352 352 351 349 352 353 350 350 350 350 351 350 349 347 349 350 350 351 351 351 350 350 349 348 349 350 351 350 351 353 352 348 342 340 344 347 345 344 347 348 347 346 342 338 341 343
352 352 352 354 354 355 356 356 357 358 357 354 355 355 354 354 353 356 356 355 355 356 355 355 358 358 357 356 354 355 356 354 354 355 354 352 352 352 350 351 352 352 351 351 352 352 350 350 352 351 350 350 348 351 352 352 353 352 350 348 347 345 343 343 344 346 347 349 352 352 351 344 339 342 345 347 347 347 347 345 345 347 343 339 340
353 353 352 353 354 355 355 355 356 356 356 353 354 356 356 354 353 354 356 357 356 356 356 354 356 357 356 356 355 354 355 354 354 355 355 352 352 351 350 349 351 351 352 351 351 352 350 349 351 350 350 350 349 350 352 352 353 351 348 344 343 342 342 341 341 342 343 345 350 351 351 346 341 341 343 347 349 348 347 343 343 347 348 344 340
353 353 352 352 353 354 354 354 355 356 356 355 354 356 357 356 355 355 356 356 356 355 355 354 355 356 356 355 355 353 353 352 352 353 353 352 352 351 350 350 351 350 351 351 350 350 350 350 350 350 350 350 350 350 350 351 351 348 344 341 342 341 341 342 341 342 341 342 347 350 350 349 344 342 342 345 349 351 349 345 342 343 347 348 344
354 354 352 352 353 353 354 354 354 355 355 355 355 355 356 355 356 357 356 355 355 355 354 354 354 355 356 356 355 353 353 351 351 352 352 352 352 352 352 351 350 350 351 350 350 351 350 350 350 350 351 350 351 350 351 350 346 343 342 341 341 340 340 341 341 342 342 340 344 348 349 349 346 343 343 343 347 351 350 347 344 342 343 346 347
355 355 353 352 353 352 353 354 355 356 354 354 354 354 354 354 356 357 357 356 355 356 355 354 354 354 355 356 356 354 354 352 351 352 352 353 353 352 352 351 350 350 351 350 350 351 350 350 350 350 351 351 351 351 351 348 343 342 342 342 341 341 340 340 340 340 341 340 342 346 347 347 346 344 344 343 344 348 351 348 346 344 342 345 347
356 355 354 352 353 352 353 354 354 356 354 353 354 353 354 354 356 357 357 357 356 356 356 354 354 354 354 357 359 357 355 354 353 354 353 354 354 353 352 351 350 350 350 350 350 351 351 351 353 352 351 351 351 351 349 345 343 342 341 342 341 341 340 339 339 338 339 339 340 343 345 346 347 345 344 344 344 345 349 349 348 347 344 344 346
356 355 355 353 353 352 351 353 353 355 354 352 353 353 355 355 356 357 357 358 358 357 356 355 354 354 355 358 362 361 357 356 358 358 355 355 354 353 353 351 351 350 349 351 352 352 352 352 354 354 353 352 351 348 346 343 343 342 340 341 340 340 340 339 338 337 337 337 338 340 341 344 346 346 345 344 344 344 347 348 348 348 347 346 347
354 354 355 354 353 352 350 352 352 354 354 352 353 354 355 356 356 356 357 358 358 357 356 355 355 355 357 360 364 363 360 358 361 361 357 356 355 354 354 351 350 351 350 352 354 352 351 352 353 354 353 352 349 345 344 343 342 341 341 340 340 340 338 338 338 338 337 336 338 339 339 341 343 344 345 344 344 343 344 346 346 347 347 348 348
353 353 355 355 354 353 351 352 352 354 355 353 353 354 354 355 356 356 357 358 358 357 357 356 356 356 357 360 364 364 362 360 361 362 359 355 353 353 352 350 351 352 350 351 353 352 351 352 351 351 351 348 346 344 344 344 342 342 342 340 340 339 337 338 338 338 339 338 338 339 338 339 340 341 343 344 344 343 342 343 345 346 347 347 348
353 354 356 355 355 354 352 353 353 355 356 356 354 354 354 354 354 355 356 358 357 357 357 356 356 356 356 359 363 364 363 362 362 362 361 355 350 349 349 351 354 353 350 350 351 350 351 351 350 349 349 346 344 344 343 343 343 343 342 341 340 338 337 337 338 339 339 340 340 340 340 340 339 340 342 342 343 344 343 341 343 346 347 347 348
353 354 355 356 356 355 355 355 355 356 357 357 356 355 355 354 354 355 355 357 358 358 358 356 356 356 355 357 360 363 362 361 360 358 358 354 350 350 350 352 357 354 349 350 348 349 350 350 349 348 346 345 344 343 342 342 342 342 342 341 340 338 337 337 338 339 339 340 341 341 341 342 342 342 340 340 341 344 344 341 342 345 348 348 349
354 355 356 357 357 356 356 356 356 356 357 357 357 356 356 355 355 355 356 357 358 358 358 357 355 355 355 355 358 362 361 359 358 355 355 355 352 354 354 353 356 355 349 349 348 349 349 348 347 346 345 345 343 342 341 341 342 342 341 340 340 338 338 338 338 338 339 340 341 340 341 342 344 346 342 339 340 342 343 342 340 342 347 349 349
355 356 357 358 358 357 356 357 356 356 357 357 358 357 357 356 356 355 356 358 359 358 357 357 356 355 356 355 357 360 360 358 354 350 355 357 354 354 355 353 354 356 352 351 351 349 347 345 345 345 345 344 342 340 340 340 340 340 340 340 340 339 338 338 339 339 339 339 338 339 339 340 343 346 346 343 342 343 345 345 342 342 344 346 346
356 356 358 359 359 358 357 358 357 355 356 357 358 358 357 357 357 356 357 359 359 359 358 357 356 356 355 356 358 359 360 361 356 351 355 358 356 353 354 355 356 357 355 355 352 347 346 346 345 344 344 344 342 340 339 339 339 340 340 341 341 341 340 339 340 340 339 337 336 336 337 338 340 341 343 344 344 345 346 346 346 346 346 346 345
356 356 357 359 360 359 358 359 359 357 355 356 357 358 357 356 358 357 357 360 360 359 359 358 356 355 355 357 359 358 356 361 362 359 360 359 357 355 355 356 357 356 356 354 350 346 345 345 344 344 343 342 341 340 339 339 339 340 341 341 341 341 341 340 340 338 337 336 334 334 335 336 337 338 339 341 342 344 344 344 346 346 348 347 346
355 355 357 358 360 359 357 358 359 358 355 355 357 357 357 357 358 358 358 359 360 360 361 360 358 357 357 359 361 357 356 362 363 361 361 359 358 356 354 355 357 356 355 351 347 346 345 344 343 343 342 341 340 340 340 340 340 342 342 340 341 341 341 340 340 337 335 335 333 333 333 333 334 336 337 339 339 340 341 342 343 343 345 345 345
355 355 356 358 359 359 357 358 359 359 356 355 357 358 357 356 357 359 358 358 359 360 361 360 359 357 359 363 363 360 362 364 361 357 359 359 359 357 354 354 356 355 352 348 346 346 344 343 342 342 342 341 340 340 340 341 340 341 341 339 337 339 340 338 337 335 334 333 332 332 332 331 333 333 334 337 338 339 339 341 342 342 343 342 343
355 355 356 357 359 360 358 358 358 359 359 356 357 359 358 356 357 358 358 358 359 360 360 358 357 355 357 362 362 362 364 363 361 360 360 360 360 358 355 355 355 350 348 347 346 345 343 343 343 342 343 342 341 341 341 341 340 338 340 340 337 337 341 340 336 334 334 333 331 332 331 331 332 332 333 334 335 336 337 338 339 339 340 339 340
355 355 357 358 359 361 359 359 359 360 360 359 358 359 359 358 357 359 360 360 359 358 357 355 354 354 355 358 357 361 365 363 362 363 362 362 360 357 355 353 351 347 347 347 345 343 342 343 343 343 344 343 342 341 341 341 340 338 339 341 338 334 339 341 337 336 334 334 332 331 331 331 331 331 331 332 332 334 335 335 336 336 336 337 337
356 356 357 359 360 361 361 360 360 360 360 360 359 359 361 360 360 363 363 362 361 358 356 355 355 354 356 358 358 361 364 361 361 362 361 361 359 355 353 350 348 347 346 345 343 343 342 343 344 344 344 344 343 340 339 340 339 339 339 339 339 338 340 340 339 339 336 335 333 332 331 331 331 331 331 331 331 331 332 333 333 333 333 334 335
357 357 358 359 360 361 362 361 361 361 361 361 361 360 363 363 363 365 364 362 361 359 359 358 355 355 356 358 360 362 362 358 356 358 358 356 354 352 351 348 348 347 346 343 342 342 343 344 344 344 343 343 344 341 338 338 339 340 340 339 339 340 341 340 340 340 337 335 333 331 331 331 331 332 332 331 331 330 330 330 331 331 331 331 332
358 359 359 359 360 360 362 362 362 362 362 362 362 362 363 364 364 364 363 362 360 359 359 357 354 353 353 355 358 359 359 356 354 356 355 354 353 352 350 349 347 346 345 344 342 341 344 345 344 343 343 343 343 341 337 336 338 340 340 339 338 339 340 339 339 340 338 337 335 331 331 331 331 331 331 330 330 331 330 330 329 330 330 330 330
358 359 360 359 360 361 362 363 363 363 362 362 363 363 364 364 364 363 362 360 359 357 356 355 353 352 353 354 354 354 356 356 354 354 355 353 353 352 350 349 346 343 343 343 342 342 344 345 344 344 344 343 343 341 339 337 338 339 340 340 340 340 340 338 338 337 336 336 335 332 331 331 330 330 331 330 330 332 332 331 329 329 329 330 329
358 360 360 360 360 362 363 364 365 364 363 363 363 364 365 364 364 363 361 359 358 356 353 352 352 353 355 355 355 354 356 357 355 354 354 353 352 352 351 350 346 342 341 341 341 341 343 343 343 344 343 342 341 340 339 339 338 339 341 341 340 339 338 337 337 336 335 335 334 334 332 331 331 332 332 331 331 331 331 331 330 329 328 329 330
358 359 360 360 360 363 364 364 366 365 364 363 363 365 364 363 363 362 362 360 359 357 353 352 352 355 357 357 357 356 356 356 354 354 354 353 352 351 349 347 344 340 340 340 340 340 340 340 342 342 341 340 340 339 338 339 339 340 340 340 340 339 337 336 336 335 336 336 335 334 331 331 332 332 332 332 332 331 331 332 331 330 328 327 329
357 358 359 360 361 363 364 365 366 366 365 364 364 364 364 363 363 363 363 361 359 358 356 353 353 356 358 357 356 357 356 354 352 353 353 352 351 350 347 344 341 339 340 341 339 339 338 338 340 340 340 340 339 339 338 338 339 340 340 339 339 337 335 336 335 335 335 335 334 334 332 331 332 332 332 332 333 333 332 332 332 331 329 328 328
Wind_Speed
14 16 16 15 12 14 20 21 20 21 21 22 24 23 21 20 21 21 21 20 20 20 20 19 19 19 19 19 19 19 19 19 19 20 20 21 20 19 18 18 18 18 18 17 15 15 15 14 14 14 14 13 13 13 13 13 12 11 10 10 10 9 9 9 9 8 8 8 8 9 10 10 11 11 11 10 9 9 7 6 6 8 10 12 13
15 16 16 15 13 14 19 18 19 21 23 24 23 22 21 21 21 21 20 20 19 19 19 18 18 18 18 18 17 18 18 18 19 19 20 20 19 18 17 17 17 17 17 16 15 15 14 14 14 14 14 14 14 13 13 13 13 12 10 9 8 8 8 8 8 7 7 6 7 8 9 10 10 10 10 10 9 9 6 5 6 9 11 11 14
16 16 15 16 14 14 18 17 18 20 22 25 24 22 21 21 20 20 19 19 18 18 18 17 17 17 16 16 16 16 17 18 18 18 19 19 18 16 16 15 16 16 16 15 15 14 14 14 13 14 14 14 14 14 14 14 14 14 13 10 7 7 7 7 6 6 7 6 6 7 7 8 10 10 9 10 10 9 6 7 9 10 11 11 14
17 16 16 17 15 15 17 17 17 18 21 22 22 21 21 20 19 19 18 18 17 17 17 16 16 16 15 15 15 15 16 17 17 18 18 18 16 15 14 14 15 16 15 14 14 14 14 13 13 13 13 13 13 13 13 13 14 14 14 12 9 7 6 6 6 5 6 6 4 4 5 6 8 9 8 9 11 9 7 9 11 11 11 11 13
17 17 18 17 16 16 16 17 17 16 19 20 19 20 20 19 19 18 18 17 16 16 16 16 16 16 15 14 15 14 15 16 16 17 17 16 14 13 13 13 14 14 14 13 12 13 13 12 12 11 11 12 12 12 13 12 12 12 12 12 11 9 7 5 5 4 5 6 4 3 5 5 6 8 8 9 10 10 10 10 10 11 10 12 14
18 19 19 17 15 17 17 17 17 16 17 18 18 18 18 18 18 17 17 17 16 16 16 16 16 15 15 14 14 14 15 15 16 16 15 13 11 12 12 13 13 12 12 11 11 11 11 10 10 10 10 11 11 11 11 11 11 11 11 10 10 10 9 6 4 4 5 6 5 5 5 5 6 7 8 9 10 10 11 11 11 11 11 12 12
18 19 18 16 15 17 18 18 17 16 16 17 17 17 17 17 16 16 16 16 15 15 15 15 15 15 15 14 14 14 14 14 15 15 14 11 10 11 11 11 11 10 11 10 9 9 9 8 8 9 9 9 10 10 10 10 10 11 11 10 9 9 9 7 4 4 5 5 4 6 6 5 6 7 8 9 9 10 11 12 12 12 12 12 11
19 19 17 16 17 18 18 18 17 16 16 16 16 16 16 16 15 14 15 15 15 15 14 15 15 15 15 14 13 13 13 14 14 13 12 9 9 10 9 10 10 10 9 9 8 7 7 6 6 8 8 8 8 9 10 9 10 11 12 11 9 8 8 7 5 5 5 5 4 5 7 6 6 8 9 9 9 10 10 11 12 11 11 12 12
20 18 17 16 17 19 18 17 16 15 15 15 15 14 15 15 14 13 14 14 14 14 14 14 15 14 14 14 13 13 13 13 13 11 10 8 8 9 8 9 9 8 8 8 8 7 6 5 5 6 7 7 7 8 8 8 9 10 10 10 9 7 6 6 6 5 4 5 4 4 6 6 7 9 9 9 9 10 10 10 11 11 12 13 12
20 18 18 17 18 19 18 17 15 15 15 15 14 14 14 14 14 13 13 13 14 14 13 14 14 14 13 13 12 12 13 12 11 10 8 7 8 8 8 8 7 6 7 8 7 7 6 5 4 5 6 6 7 7 7 7 8 9 9 9 8 7 5 4 4 6 5 5 5 3 5 6 8 9 8 9 9 10 8 8 10 10 11 13 12
20 18 18 18 19 20 18 17 15 15 15 15 14 14 13 13 14 14 14 14 14 14 13 13 13 13 12 12 12 12 12 12 10 8 6 6 7 7 6 6 6 6 7 7 7 7 6 5 5 5 7 7 7 7 7 7 7 7 8 8 7 6 4 3 3 6 6 4 4 4 5 6 8 9 8 9 9 10 8 8 9 9 10 11 12
19 19 18 19 20 20 18 17 16 15 15 15 14 14 14 14 14 14 14 14 14 13 12 12 12 12 11 11 11 11 11 10 9 7 5 6 6 5 5 5 6 7 7 8 8 8 6 5 6 7 7 7 7 7 6 6 6 6 6 7 7 5 4 4 4 6 5 4 5 4 4 7 8 7 7 8 8 9 9 9 9 9 9 10 11
20 19 19 19 19 20 19 18 16 15 15 15 15 15 15 14 14 14 13 13 12 11 11 10 10 10 10 10 10 10 10 9 8 7 4 4 6 5 5 5 6 6 7 7 7 8 7 6 8 7 7 7 7 7 6 5 5 7 6 5 6 5 4 3 4 5 4 5 5 3 3 6 7 6 7 7 7 9 8 9 9 9 9 9 9
21 21 20 19 19 20 19 19 17 15 15 15 15 16 16 15 13 13 13 12 11 11 10 9 9 9 9 9 9 8 8 7 7 6 3 3 5 4 4 4 5 6 6 6 7 7 7 8 8 7 7 8 7 6 6 5 4 6 5 4 4 4 3 3 3 3 4 3 4 5 4 6 5 5 7 6 6 8 8 8 8 8 8 9 9
22 22 20 19 19 19 19 19 17 15 15 15 15 16 16 15 13 13 12 12 11 11 10 9 9 9 9 8 8 8 7 6 6 5 3 2 3 3 3 4 5 6 6 6 7 7 8 8 9 7 7 8 7 6 6 5 4 4 4 4 4 4 4 3 2 2 3 2 2 7 7 4 4 5 6 6 6 7 7 8 8 8 8 8 9
21 21 20 20 20 19 19 18 17 16 15 14 15 15 16 14 13 12 11 11 11 11 10 9 9 8 8 8 8 7 6 6 4 3 3 2 2 2 3 4 5 5 5 7 7 7 8 8 8 8 7 7 7 7 6 5 4 5 5 5 4 5 5 3 3 3 3 2 2 5 7 5 4 5 5 6 6 6 8 9 8 8 8 8 8
20 20 20 20 20 19 18 17 17 16 15 14 15 16 15 14 13 12 11 11 11 11 10 9 9 8 8 8 7 7 6 4 3 3 2 1 1 2 3 4 5 4 5 7 8 7 7 7 7 6 6 6 7 8 7 6 5 5 4 5 5 5 5 5 4 3 4 2 1 2 5 5 4 5 5 5 6 5 7 9 9 9 9 8 8
19 19 19 20 19 18 17 17 17 16 15 15 15 15 14 13 12 12 11 11 11 10 9 9 8 8 8 7 7 6 5 4 3 3 2 1 1 2 3 4 4 5 6 8 8 8 7 7 7 6 6 6 7 7 7 7 6 5 5 5 5 4 5 5 3 2 4 2 1 1 4 4 3 6 6 5 6 6 7 9 9 9 9 9 8
17 18 18 19 18 18 17 17 17 16 16 16 15 15 14 13 12 11 11 10 10 9 9 8 8 7 7 7 6 5 4 3 3 3 2 1 0 1 3 3 3 4 6 6 7 7 6 7 6 5 6 6 6 7 7 8 7 6 6 6 5 3 4 4 1 2 3 2 2 2 3 3 4 7 7 6 6 6 6 8 9 9 10 9 8
16 17 17 17 17 17 17 17 17 17 16 15 15 15 14 13 12 11 11 10 10 9 9 8 8 7 7 6 6 5 4 3 3 3 2 1 1 1 3 3 3 4 5 5 5 5 5 5 5 4 4 6 6 6 7 7 8 8 7 7 5 4 5 3 2 1 2 2 3 2 2 3 5 8 8 7 7 7 6 7 9 10 10 10 9
15 16 16 17 17 17 17 17 17 17 16 15 15 14 14 13 12 12 11 11 10 9 9 8 8 7 7 6 5 5 5 5 3 4 4 2 2 2 3 3 4 4 5 5 4 3 4 5 4 4 4 5 4 5 7 7 8 9 8 7 5 4 4 3 3 3 0 1 2 1 2 2 5 8 9 8 8 9 7 8 9 9 10 10 10
15 16 16 16 16 17 17 17 17 17 15 14 15 14 14 13 13 13 12 11 11 10 9 9 8 8 7 6 6 7 6 4 4 5 5 3 3 3 3 4 4 4 5 3 3 3 3 5 4 5 5 5 5 4 5 6 7 9 9 8 5 3 5 6 5 5 3 1 1 1 2 1 3 7 9 9 9 10 9 8 9 9 10 10 10
16 15 16 16 16 17 16 16 17 17 15 14 14 14 14 14 14 14 13 12 11 11 10 10 9 8 8 8 7 7 6 4 5 7 6 4 4 3 3 4 4 4 4 2 3 4 4 5 5 5 5 4 4 2 3 5 6 7 8 7 6 5 7 7 6 6 5 0 0 3 3 2 3 7 9 10 10 10 10 9 9 9 9 10 10
16 16 16 15 15 16 16 15 16 16 14 14 13 14 14 14 15 14 13 13 12 12 11 11 10 9 8 9 8 7 7 6 7 7 6 5 4 3 4 3 2 2 3 2 2 3 3 4 5 4 3 2 2 2 3 4 5 6 7 6 7 7 7 7 5 6 5 2 3 3 3 3 4 6 8 10 11 11 11 10 9 8 9 10 10
15 15 16 15 15 16 16 15 16 16 14 14 14 14 15 14 14 13 12 12 12 12 12 11 10 10 9 9 8 7 6 7 6 5 6 4 3 4 6 4 2 1 1 2 3 1 0 1 2 3 3 3 2 4 5 6 6 6 7 7 7 8 8 7 6 6 4 2 2 3 4 4 5 6 8 10 11 12 12 11 11 10 9 10 10
14 15 16 15 15 15 16 16 16 16 15 14 14 13 15 14 12 11 11 10 11 11 11 11 10 10 9 8 7 6 6 7 5 5 6 5 4 5 6 5 4 3 3 4 4 2 2 2 2 2 5 6 4 6 7 8 8 7 7 7 8 8 8 7 7 7 6 4 4 4 6 5 5 8 8 9 11 13 13 13 12 12 10 10 10
14 14 15 15 16 15 16 16 16 16 14 13 12 12 12 12 11 10 10 10 10 10 10 10 9 9 9 8 7 7 7 7 6 6 6 5 6 6 6 7 8 6 4 4 2 2 3 2 2 3 5 6 6 7 8 8 8 8 8 8 8 8 8 7 7 7 6 6 6 5 6 5 5 8 9 9 10 12 14 14 13 12 12 11 10
15 14 15 16 16 16 16 16 15 15 14 13 12 11 10 10 10 10 10 9 9 10 9 9 8 8 9 9 8 8 7 7 7 6 6 7 7 6 6 7 7 5 2 2 3 2 4 3 4 5 5 6 6 8 8 8 8 9 9 8 8 8 7 7 6 6 6 5 5 6 5 4 4 7 9 10 9 11 13 13 14 14 13 13 12
16 15 16 16 17 17 17 16 15 14 14 13 12 11 10 10 10 10 10 9 9 9 8 8 8 8 9 9 8 8 7 7 7 6 7 7 6 6 7 6 5 4 3 4 3 2 4 4 5 5 5 7 7 8 8 8 9 9 8 7 8 8 7 7 7 6 6 5 4 6 6 5 4 6 8 9 10 11 11 11 13 15 14 14 13
17 16 16 16 17 17 18 17 16 15 14 14 13 12 11 11 10 10 9 9 10 9 8 8 9 9 9 9 9 9 8 7 7 6 6 7 6 6 6 6 5 4 5 5 3 3 5 5 5 5 6 7 8 8 7 8 9 8 6 6 7 8 8 8 8 6 6 4 3 5 6 7 4 5 6 7 9 10 10 10 11 14 15 14 14
18 18 17 16 17 18 18 18 17 15 15 14 14 13 12 11 11 10 10 10 10 9 9 10 9 9 8 8 9 9 8 8 7 6 5 6 7 7 6 6 7 4 3 4 4 3 4 4 4 5 6 7 7 7 7 8 8 7 6 6 6 7 8 9 9 7 6 4 3 4 6 7 5 3 4 5 7 9 9 9 10 12 14 15 15
18 19 18 17 18 19 19 19 18 17 16 15 14 14 13 11 11 10 10 10 10 10 10 11 10 9 8 7 8 9 9 8 6 5 5 7 7 8 8 8 8 6 5 5 5 4 3 4 3 4 6 6 6 7 7 8 6 7 7 6 6 7 8 9 8 8 6 4 4 4 5 7 6 3 3 4 6 7 8 9 10 10 12 13 15
19 20 19 18 18 19 19 19 19 18 18 17 14 14 13 12 12 11 11 10 10 11 11 11 11 10 8 7 8 8 8 7 5 6 6 7 7 7 8 9 7 6 6 4 5 5 4 4 4 4 5 5 7 7 6 7 6 6 7 6 6 7 7 8 8 8 7 6 4 4 4 4 5 5 5 4 5 6 7 8 8 9 10 12 14
19 20 20 20 19 19 19 19 20 19 18 17 15 14 14 13 12 12 11 11 11 11 11 11 10 10 9 9 9 8 9 8 6 6 6 9 9 6 8 9 6 6 6 6 6 6 4 3 5 5 5 6 7 7 6 6 6 6 6 6 6 7 7 7 7 7 6 6 6 5 5 4 4 5 6 5 5 5 7 7 8 8 9 11 13
19 20 21 21 20 19 18 19 20 20 19 18 16 15 14 13 13 12 12 12 12 12 12 11 10 10 10 10 10 9 9 8 8 7 6 10 11 8 8 8 6 5 7 7 6 6 4 3 4 5 6 7 7 7 6 5 5 5 5 5 5 6 6 6 6 5 4 5 6 5 5 5 4 4 4 5 6 5 4 6 8 8 9 10 12
20 19 21 22 21 20 19 18 19 20 20 18 18 15 14 13 13 12 12 12 12 12 11 11 11 11 11 10 10 10 10 9 9 9 8 10 10 9 9 6 5 6 7 7 7 6 5 3 3 5 6 7 8 7 7 6 5 5 4 4 4 5 5 5 5 5 5 5 4 4 4 4 5 6 4 4 6 5 3 4 6 9 9 9 11
21 19 20 22 22 21 20 19 19 20 20 19 18 16 15 14 13 13 12 12 12 12 11 11 11 11 11 10 10 11 11 11 11 11 10 10 10 9 9 7 6 7 7 8 8 7 5 5 4 5 6 6 7 8 8 7 5 5 5 4 4 4 4 4 5 5 4 2 2 2 3 4 4 5 4 3 4 4 3 3 4 8 9 8 9
22 21 20 22 22 21 21 20 19 19 20 19 18 17 16 15 14 14 13 12 12 12 12 11 11 11 11 10 11 13 12 12 13 13 11 10 10 9 8 8 6 6 7 8 7 6 6 6 5 6 6 6 7 8 7 7 6 5 5 4 3 4 4 3 4 4 3 2 3 2 2 3 4 5 5 4 3 3 2 1 2 5 7 7 8
23 22 21 21 22 22 21 20 19 19 19 19 18 17 16 16 15 15 14 13 13 13 13 12 12 12 11 11 13 14 12 11 12 12 11 10 11 10 9 8 7 8 8 6 5 6 5 5 6 6 5 6 6 7 7 6 6 5 5 4 1 2 3 3 3 3 3 3 4 4 2 4 4 6 6 5 5 5 4 3 2 3 4 3 2
23 22 22 21 22 21 21 20 20 19 19 18 18 18 17 17 16 15 15 15 14 14 13 13 13 12 12 12 14 14 12 11 10 10 10 10 10 10 10 9 9 9 7 4 4 5 4 4 6 5 5 6 5 4 5 5 5 5 5 4 1 2 1 2 3 2 2 2 3 5 5 5 5 5 5 5 5 6 6 5 4 4 3 2 3
23 23 23 23 22 22 21 21 20 20 20 20 19 19 18 17 17 17 17 16 16 15 15 14 13 13 12 12 12 12 11 11 10 10 10 10 12 12 13 12 9 7 4 1 3 3 4 3 4 4 3 4 4 3 2 3 4 4 4 4 3 4 2 2 4 2 1 2 2 3 4 6 6 5 5 5 5 5 6 6 5 6 5 3 3
25 25 24 23 22 22 22 21 20 21 21 20 19 19 19 18 17 17 17 16 16 15 15 14 14 13 11 11 12 11 11 11 12 13 11 10 13 12 12 12 8 4 2 1 1 2 3 3 4 3 3 2 3 3 1 2 5 2 2 4 3 5 3 3 4 2 1 1 3 4 4 5 6 6 5 5 6 6 6 6 5 5 5 2 2
26 26 25 25 24 23 23 22 21 21 21 21 20 19 19 19 17 16 16 14 13 13 13 14 17 16 12 13 14 12 12 12 12 11 10 10 11 10 8 7 4 2 1 1 1 1 2 3 3 4 4 3 3 2 1 3 5 3 1 3 3 3 3 4 3 2 1 1 2 4 4 4 6 6 5 5 5 6 6 6 6 6 5 4 3
26 27 27 27 26 25 24 23 22 21 21 21 21 20 19 19 18 16 14 12 10 12 14 15 16 17 16 16 15 12 12 11 10 10 9 9 8 7 5 4 3 2 1 1 2 2 3 3 4 4 5 5 4 2 2 2 4 4 2 2 3 2 1 3 4 2 0 1 1 5 4 2 5 6 5 5 4 4 5 5 5 5 5 5 4
27 27 28 27 26 26 25 24 23 22 21 21 21 21 19 18 18 15 12 11 10 10 12 12 14 17 17 13 12 11 10 9 9 10 9 8 7 6 4 3 3 2 2 2 2 3 3 4 4 3 4 5 6 2 1 1 1 2 4 2 2 2 1 2 0 0 2 2 3 5 3 1 4 4 3 4 3 3 3 4 4 4 4 4 4
27 27 27 27 26 25 25 25 23 22 22 22 23 22 20 20 19 16 14 13 13 11 11 12 13 16 14 10 10 9 9 9 9 9 9 7 6 6 6 4 3 2 2 2 2 3 4 3 3 3 4 3 4 4 3 2 1 1 4 3 2 2 2 4 3 1 3 5 3 2 2 2 2 2 2 2 1 2 3 2 2 2 3 3 2
27 27 26 27 26 25 25 25 24 23 23 23 24 24 22 21 20 17 15 14 13 13 13 13 13 13 10 9 9 9 9 9 8 8 8 7 6 7 7 5 3 2 2 2 2 3 2 1 2 3 2 1 1 3 4 2 1 2 4 2 2 2 2 2 2 1 2 3 3 2 4 6 2 2 1 1 0 2 4 3 2 1 1 1 1
27 27 26 27 27 26 25 26 25 24 24 24 24 25 24 23 21 18 16 15 14 13 13 13 13 11 9 8 8 8 9 9 7 8 7 7 7 8 7 5 3 2 2 3 3 3 1 0 1 1 1 1 1 2 4 3 2 2 1 1 2 1 1 1 1 3 3 3 2 4 4 2 2 3 1 4 3 2 3 2 2 3 2 1 1
28 27 27 26 27 27 26 26 26 24 24 24 25 26 26 23 20 19 17 16 15 14 14 13 12 10 9 8 8 8 8 8 7 8 7 7 8 7 6 4 2 2 3 3 4 3 2 1 2 2 2 2 0 2 2 3 5 3 2 1 2 2 3 2 2 2 2 2 2 2 3 3 4 3 2 4 4 3 4 3 3 5 4 2 2
28 28 27 26 26 27 27 27 26 25 24 25 25 26 26 23 20 19 19 17 15 14 14 12 11 10 9 9 9 8 8 8 7 8 8 8 8 7 5 4 2 3 3 4 4 3 2 3 3 3 3 2 1 2 2 3 4 4 1 1 2 2 2 2 3 2 2 1 3 4 6 5 4 3 3 5 4 5 7 6 6 6 4 3 4
29 28 28 27 27 27 27 28 27 26 25 25 26 26 25 23 21 20 19 18 16 15 13 12 11 11 10 9 9 9 8 8 8 8 8 8 8 7 5 4 3 3 4 4 4 4 4 4 4 3 3 3 2 3 3 3 3 3 3 2 3 4 1 2 5 4 1 3 4 5 7 7 7 6 5 6 5 6 7 7 7 7 5 5 6
Wind_Direction
130 134 137 136 129 119 113 115 116 117 121 126 129 126 124 121 116 115 116 118 118 118 119 117 116 116 113 110 105 100 96 94 92 90 89 88 87 86 84 84 84 83 82 80 78 74 71 72 70 65 62 62 63 60 59 61 63 64 70 75 71 70 67 67 74 73 74 82 86 85 84 81 81 81 79 79 81 84 79 84 108 112 115 121 119
132 134 137 137 129 116 111 112 113 118 124 125 127 126 126 122 117 117 118 118 119 120 121 120 119 119 115 111 106 99 96 94 91 89 87 86 85 83 82 82 82 82 80 79 76 72 71 71 69 67 63 61 60 58 56 55 53 51 52 63 70 72 69 62 65 76 76 78 82 82 83 82 83 82 82 84 85 88 85 95 114 116 120 126 123
131 129 135 137 129 118 114 113 112 116 121 125 125 124 126 122 120 120 119 120 120 120 123 124 123 121 117 112 106 100 96 93 90 88 86 86 85 85 85 82 81 82 79 77 74 70 68 66 66 65 63 61 59 54 53 52 51 47 39 43 55 60 69 66 58 70 69 71 84 78 76 79 82 82 86 91 93 92 90 105 111 116 125 128 125
130 129 135 135 130 122 119 118 114 114 117 122 122 124 126 123 123 123 122 122 122 121 123 126 125 123 119 113 107 101 95 93 91 88 87 86 88 89 88 85 83 82 80 76 72 68 62 61 61 61 61 61 59 54 52 51 50 48 40 35 35 37 49 62 59 59 59 69 86 74 76 82 84 85 86 93 99 97 92 106 110 112 118 121 124
131 132 133 132 130 126 123 121 117 114 116 118 120 124 126 125 126 126 125 123 122 122 124 125 125 124 120 114 108 102 96 93 91 89 89 90 93 93 90 88 86 85 83 79 75 71 66 63 62 60 59 59 59 57 55 54 50 47 44 37 29 24 24 40 52 46 59 70 66 61 80 93 95 90 86 93 101 99 97 103 106 106 108 116 122
129 131 132 130 129 130 128 123 120 118 116 118 120 124 125 127 129 130 129 125 123 124 125 124 124 123 119 114 108 102 98 95 93 92 94 96 98 94 92 90 88 87 83 81 78 75 74 70 66 61 57 55 56 55 56 56 52 48 45 42 32 21 15 24 39 38 54 62 67 73 80 106 113 99 90 95 100 98 100 101 103 107 108 115 118
127 132 133 130 131 133 132 127 125 123 123 123 123 125 128 129 132 134 134 130 127 127 127 125 125 123 118 113 108 103 100 97 97 97 99 102 99 93 93 92 87 82 78 76 73 71 72 69 67 64 58 52 50 49 49 50 50 49 46 45 42 31 21 24 37 48 53 52 71 83 78 101 117 111 99 96 101 99 100 103 106 109 111 118 117
129 135 137 135 136 136 133 129 126 128 129 130 128 128 129 131 135 137 137 134 131 131 130 127 126 122 117 112 108 104 102 101 101 102 104 106 99 93 91 89 81 76 75 72 68 65 64 61 61 63 60 54 48 43 41 41 43 48 49 48 47 41 33 36 51 55 45 43 62 90 86 94 118 116 105 99 104 101 97 102 109 112 115 120 119
134 136 139 136 138 140 134 129 127 131 135 135 133 132 131 131 135 138 139 138 135 137 134 130 127 122 117 114 110 106 104 105 104 105 109 107 95 89 86 82 76 72 68 63 59 57 60 56 51 52 52 53 48 39 36 34 36 41 45 49 50 46 47 55 71 73 31 17 41 83 85 84 110 112 107 103 105 107 99 99 108 117 119 119 121
134 135 138 135 142 145 137 132 132 136 141 141 138 138 137 133 136 140 143 142 141 141 137 132 129 124 121 118 113 110 108 108 109 109 112 106 90 85 86 85 80 70 58 51 48 49 49 39 31 35 33 36 38 34 31 32 34 34 36 42 50 50 60 66 76 87 54 11 21 61 79 76 100 106 108 108 109 113 108 105 116 124 121 121 125
133 134 135 136 146 149 141 137 138 142 146 146 143 143 141 137 139 142 145 147 146 143 138 134 130 125 124 120 116 114 111 111 111 111 115 101 89 87 89 90 80 62 51 45 41 39 31 16 5 15 24 20 18 23 27 30 30 30 30 30 40 48 68 71 47 69 65 31 13 36 86 90 98 102 105 109 113 114 110 114 121 124 119 120 125
132 134 135 139 148 149 143 141 143 146 149 149 148 146 144 140 141 143 145 149 149 145 139 135 133 128 125 121 119 116 112 111 111 114 116 95 91 93 88 83 71 56 46 43 38 32 23 11 356 359 19 11 2 12 20 21 22 28 28 24 32 41 71 79 53 61 57 48 36 25 72 92 100 100 103 108 116 120 118 120 122 121 121 125 127
133 135 136 139 146 149 149 149 149 148 150 152 151 149 146 142 142 144 144 148 150 147 142 138 136 131 127 124 120 117 113 111 112 118 114 93 97 96 84 71 61 51 42 41 36 27 19 11 359 0 9 356 350 360 10 17 23 25 26 30 34 40 77 80 51 66 58 54 68 47 65 98 108 102 106 111 117 129 129 126 127 126 130 131 129
136 137 137 137 144 152 155 158 157 154 153 155 156 153 148 144 146 146 144 146 147 146 143 138 136 133 130 128 125 120 117 117 119 124 118 96 100 94 78 55 45 43 39 38 34 25 20 13 4 4 1 352 346 347 1 18 28 24 24 38 38 36 64 71 40 70 76 60 98 111 94 107 122 111 114 116 117 133 136 132 133 132 134 135 133
137 136 136 137 143 152 157 162 164 162 159 157 156 156 151 147 148 148 144 145 146 145 144 140 139 138 136 134 132 128 127 133 135 133 132 114 100 85 65 41 24 28 38 39 33 25 20 15 8 5 359 357 353 354 14 23 39 42 29 33 39 30 36 78 76 85 96 28 82 113 104 111 139 127 121 120 120 134 140 139 140 141 139 139 138
133 134 135 137 143 150 156 161 165 163 161 157 153 156 155 151 149 149 146 148 150 148 149 148 146 146 144 143 140 140 142 147 153 148 141 128 86 46 39 29 14 19 39 36 29 26 18 11 12 9 0 8 11 17 36 34 52 61 38 36 41 32 36 83 80 70 94 34 24 107 115 118 131 134 128 125 127 135 142 144 148 149 143 143 144
133 134 135 140 144 149 152 156 162 161 158 153 152 156 157 153 151 152 150 152 155 154 156 156 154 153 151 150 148 149 152 158 162 151 146 139 72 30 18 13 7 7 26 26 24 24 16 11 16 19 18 31 32 30 40 42 49 50 41 44 44 42 47 67 57 45 81 95 52 106 126 118 119 140 136 132 132 133 143 151 157 156 147 149 152
135 136 137 141 146 148 149 153 159 158 154 153 155 159 159 156 155 156 156 157 158 159 160 161 159 155 154 154 154 154 160 169 170 164 163 166 61 38 6 5 4 351 1 12 20 19 14 18 18 29 44 54 48 34 32 33 33 28 31 34 37 48 50 60 60 48 78 89 25 72 129 121 141 154 146 141 137 134 144 154 160 158 154 158 157
136 137 139 142 146 148 147 151 154 155 155 155 158 162 162 160 162 161 162 164 163 164 165 164 161 158 158 158 161 165 172 180 185 189 183 211 35 29 334 348 359 345 347 356 12 11 9 23 27 35 52 60 52 38 28 22 24 21 21 29 34 35 39 61 59 52 85 67 40 114 124 117 154 157 152 150 146 140 144 155 161 161 161 167 164
139 141 142 143 146 146 148 151 153 157 158 159 160 165 167 164 164 165 168 169 169 170 167 168 167 166 167 169 170 166 179 189 198 207 204 241 211 231 298 329 346 337 338 343 357 2 5 23 40 50 56 59 51 46 44 33 27 21 24 37 36 14 24 44 325 340 112 89 88 128 64 83 150 157 154 157 160 155 152 157 165 167 167 173 171
145 146 145 146 147 148 151 154 157 161 161 162 161 164 170 169 168 170 174 174 175 174 171 173 173 174 178 179 171 170 191 193 196 218 224 251 276 277 298 330 338 336 335 338 345 348 10 33 59 74 69 59 49 47 37 27 22 19 30 37 29 10 4 359 335 332 4 114 114 135 13 57 143 158 158 162 171 170 166 163 167 172 172 178 176
149 148 148 150 149 152 155 158 161 162 161 161 160 165 172 171 173 176 178 179 178 178 179 178 177 182 187 189 181 187 204 196 190 212 218 220 261 292 315 327 331 339 334 337 0 0 22 45 69 79 74 54 46 42 356 357 7 5 19 21 12 5 340 340 326 317 331 116 125 286 316 6 134 156 165 168 179 180 176 172 170 173 175 180 179
154 152 153 155 154 156 159 160 161 161 161 161 163 167 171 174 177 179 179 180 181 182 185 182 188 196 195 197 194 196 201 190 200 209 212 221 252 298 324 331 338 342 339 351 27 37 46 52 63 70 63 40 41 47 318 338 353 346 356 355 348 343 334 335 318 316 330 55 210 279 275 269 164 157 171 176 182 185 185 182 176 176 177 180 181
159 157 157 160 159 159 161 163 164 164 164 165 167 169 174 179 178 179 180 181 183 186 190 189 197 204 199 200 198 195 193 198 218 220 221 230 250 289 294 305 327 337 358 351 1 32 48 47 38 42 40 12 1 323 309 323 328 330 332 333 336 334 332 332 322 326 323 280 227 252 288 273 206 174 180 184 186 187 187 188 187 184 180 181 185
163 160 160 164 164 164 164 166 168 171 171 168 171 173 178 182 179 180 183 184 186 190 195 195 199 202 201 207 204 198 202 215 226 226 230 236 250 274 275 272 269 275 2 245 230 323 16 178 344 349 309 274 284 307 316 319 318 324 327 332 336 333 332 328 322 321 314 290 236 257 306 295 233 205 192 192 192 187 187 192 194 192 187 186 188
167 164 163 167 168 169 169 172 174 177 178 173 174 177 181 185 184 184 186 187 189 193 197 199 202 202 205 213 212 206 212 224 221 221 237 251 250 255 264 254 241 231 221 230 209 214 261 220 245 306 302 289 308 322 318 316 319 328 334 335 331 329 326 321 318 314 314 323 315 292 305 301 245 224 208 201 196 189 193 197 197 197 194 192 191
172 169 168 171 173 175 175 177 178 180 184 182 181 182 185 189 187 186 191 191 192 195 199 204 202 201 208 215 219 219 219 225 223 224 238 250 243 242 260 246 234 228 216 242 237 243 275 294 297 300 306 303 317 319 311 313 321 328 331 330 323 320 317 315 315 308 310 313 304 295 303 304 244 228 219 209 199 196 202 203 199 199 199 200 200
174 174 172 175 178 180 180 182 182 183 186 187 188 190 190 192 189 190 197 197 199 202 203 205 200 201 211 216 223 229 230 231 227 232 238 246 248 252 263 249 244 252 234 264 271 268 281 295 293 287 295 305 313 313 310 316 321 320 323 327 323 317 314 315 315 307 305 297 287 297 312 320 259 229 223 216 203 204 211 208 205 203 201 204 207
176 179 178 178 181 182 182 185 186 186 187 189 193 195 195 197 195 195 201 202 205 210 209 210 206 209 214 214 222 232 239 242 239 242 245 251 258 264 272 271 277 277 271 289 282 281 293 290 294 301 311 313 313 312 312 318 320 320 326 334 330 325 328 327 322 313 304 290 275 287 306 320 280 226 222 221 210 210 218 216 211 208 205 206 209
178 183 182 180 182 183 185 186 187 188 190 193 196 199 199 199 200 201 205 205 210 215 213 216 216 217 217 213 218 229 240 246 249 248 250 268 274 272 276 280 283 258 258 291 300 287 290 295 304 308 311 307 307 312 315 323 324 325 332 336 336 336 339 334 324 312 297 290 272 274 301 315 290 222 220 220 216 217 220 220 215 212 211 210 210
180 185 186 183 184 185 187 188 188 189 191 196 198 200 201 201 202 203 208 209 212 216 217 222 222 224 221 209 209 222 236 244 259 261 254 270 276 276 280 285 285 269 267 291 287 279 286 295 296 298 303 301 302 312 319 323 326 329 331 337 342 342 342 336 328 317 299 298 299 286 293 298 298 254 228 222 220 220 219 219 217 214 214 216 217
183 188 189 185 187 189 189 188 189 190 192 198 199 200 202 202 204 204 210 211 212 216 220 224 223 226 223 205 203 214 227 235 257 264 257 267 272 275 278 285 286 277 286 299 295 284 273 283 275 282 296 295 299 312 317 316 325 330 329 340 346 346 348 336 329 329 318 307 301 290 276 276 289 293 258 245 231 225 223 220 220 218 214 216 221
186 190 190 189 191 191 191 189 190 191 193 199 199 201 203 203 206 207 211 211 213 219 222 225 223 224 218 207 207 208 216 222 235 241 249 260 263 275 280 282 275 259 267 271 276 274 258 276 275 271 286 289 300 313 315 313 327 331 330 342 346 351 352 336 335 344 334 320 313 310 298 273 275 286 279 270 255 240 235 227 225 225 218 216 221
187 189 190 191 193 192 193 192 192 193 195 200 201 203 204 205 208 209 211 211 216 221 223 227 225 225 220 213 211 209 214 215 218 226 241 250 252 271 278 272 248 232 256 248 250 266 262 278 280 280 286 289 301 312 311 319 333 330 333 340 346 356 349 338 348 349 337 332 334 331 318 298 275 269 260 263 275 261 247 240 231 227 223 218 219
188 188 189 192 195 193 193 194 194 196 197 200 202 204 205 208 210 212 214 214 218 223 225 227 226 228 227 220 215 213 214 210 215 221 235 254 257 256 255 250 230 231 255 245 246 267 269 272 280 284 287 296 310 312 308 319 329 324 335 336 341 353 340 345 353 336 348 360 343 339 333 326 316 290 259 256 269 259 251 248 237 228 223 219 218
192 189 188 191 197 196 195 196 194 196 199 201 203 205 206 209 214 215 216 217 221 225 226 228 227 229 231 228 218 211 214 210 217 226 234 252 253 247 249 238 219 242 247 238 252 267 267 273 284 289 297 311 315 310 310 319 321 322 326 322 340 348 337 350 346 336 14 20 348 348 357 351 338 328 310 260 242 229 243 257 242 232 221 218 216
194 192 190 190 196 196 197 199 196 196 199 202 204 205 206 210 215 218 218 219 222 226 226 227 228 228 228 230 216 206 214 214 218 231 237 245 245 250 264 248 225 247 246 238 253 269 282 289 285 294 306 313 308 304 308 311 314 319 313 314 339 333 332 352 339 346 9 356 357 14 15 24 12 358 341 285 230 206 240 264 242 232 219 216 213
193 193 192 191 195 196 198 201 201 199 198 201 204 206 208 211 215 220 221 221 223 226 227 226 228 227 225 227 217 209 213 217 224 237 241 246 249 250 257 249 239 248 243 239 255 282 298 297 296 302 307 304 302 304 305 307 310 308 300 303 325 320 331 348 330 343 341 340 36 16 19 59 42 33 30 7 28 103 170 220 209 222 216 216 222
193 194 193 192 194 197 198 201 204 203 200 201 204 206 209 212 216 220 221 222 224 226 227 226 226 226 223 223 219 213 214 218 226 241 246 252 255 252 251 249 243 242 242 249 271 293 299 305 311 309 307 301 298 305 304 294 290 289 292 298 303 297 320 332 323 337 323 345 28 348 356 77 58 40 44 39 40 58 78 99 132 183 196 198 238
193 193 192 192 194 196 198 199 202 203 201 201 203 206 209 212 215 217 218 218 220 223 225 226 226 223 218 218 221 222 223 218 216 232 242 252 257 254 252 244 238 243 246 261 288 303 314 317 312 311 312 306 295 291 293 285 285 290 286 281 240 218 261 310 295 301 306 320 30 0 1 43 49 44 43 43 43 44 54 65 88 112 122 101 66
194 194 194 194 194 196 198 198 199 200 202 202 202 205 207 209 212 214 216 215 215 219 220 222 227 225 215 214 224 228 226 218 217 228 232 245 256 257 255 242 231 234 236 274 317 334 337 317 306 307 307 311 303 274 275 289 283 281 266 253 214 207 213 237 251 249 303 322 66 49 12 18 27 36 46 48 49 46 51 62 72 79 74 76 79
193 194 195 195 196 197 198 199 198 199 203 203 203 206 207 209 211 213 216 214 214 217 218 219 222 227 216 207 217 221 219 221 228 235 233 241 255 260 256 240 220 198 185 238 331 348 327 311 301 295 282 297 306 293 327 286 267 274 294 288 246 203 209 247 256 247 229 2 75 80 43 29 29 23 28 44 55 55 52 55 59 62 62 66 81
193 193 194 195 196 198 199 199 199 199 201 203 204 207 209 211 212 214 216 216 215 211 215 225 224 227 222 212 217 216 215 224 229 230 231 239 251 253 242 225 199 161 165 217 274 289 301 296 277 282 282 270 252 249 312 286 288 323 337 296 276 203 198 234 228 210 191 39 79 95 56 26 35 26 23 35 42 55 58 54 53 55 59 68 80
193 193 194 195 196 198 198 198 199 200 201 202 204 208 210 211 214 218 213 206 205 205 217 229 226 228 228 220 218 211 212 224 223 218 222 227 234 235 222 196 167 153 163 211 249 259 260 257 253 261 271 277 272 202 157 255 303 325 295 263 279 253 201 204 181 173 240 289 153 110 88 45 48 27 14 35 33 49 64 60 57 56 55 61 75
195 194 195 195 196 197 196 196 198 200 201 202 203 206 208 208 209 210 202 194 197 205 216 223 224 230 228 218 213 211 217 225 219 213 211 207 208 208 194 171 161 162 194 221 251 261 252 250 247 243 248 275 301 306 151 242 288 314 296 302 281 266 337 318 212 207 281 248 179 125 102 112 71 37 7 29 27 41 60 66 68 67 65 63 71
196 196 195 196 197 196 195 195 197 199 202 202 201 203 205 205 201 196 195 201 207 209 214 216 222 230 226 214 213 214 219 221 214 208 199 194 196 188 177 172 170 183 203 216 245 251 251 249 234 240 242 250 302 311 292 251 183 261 276 277 256 257 342 330 326 328 289 284 243 159 129 91 76 163 145 75 39 42 23 35 63 71 79 75 80
196 195 196 196 196 195 195 195 197 199 201 202 201 201 203 204 201 198 200 207 213 215 218 219 222 228 222 208 208 206 208 211 204 198 193 189 186 176 171 172 180 195 196 202 232 248 258 261 238 245 256 221 259 290 285 271 185 220 242 243 251 298 359 334 320 306 257 285 306 253 175 135 86 261 151 44 20 58 1 339 350 337 135 105 91
197 195 196 196 195 195 194 194 197 199 200 201 201 203 204 204 204 205 208 214 218 219 220 220 221 222 212 198 200 200 201 205 199 193 191 186 179 174 173 176 186 203 203 207 222 243 259 280 243 239 214 205 202 267 298 326 296 237 166 226 258 262 245 186 23 328 290 271 254 239 214 149 353 308 313 316 309 4 329 298 325 310 271 223 211
198 197 197 196 194 194 194 195 197 198 200 201 201 205 207 206 208 208 211 216 218 221 220 215 212 207 198 192 195 193 189 191 190 186 185 182 178 174 176 181 200 222 220 219 215 222 240 242 235 220 203 214 237 267 290 302 285 299 74 226 247 231 238 196 160 234 271 292 265 251 261 266 280 267 264 296 308 330 300 291 319 295 269 259 243
199 198 197 197 194 194 195 196 198 198 199 200 201 206 207 208 211 211 213 214 213 218 219 211 203 195 192 191 190 186 183 184 183 178 177 177 176 177 186 201 226 228 216 224 228 222 237 242 230 226 222 227 240 248 264 259 271 304 351 221 248 254 271 281 258 230 179 228 276 289 280 273 298 317 299 295 318 328 301 292 300 285 265 276 269
199 198 197 197 195 194 195 197 199 199 199 200 200 203 205 206 209 209 211 212 209 211 212 208 201 192 191 194 191 188 185 187 186 181 180 179 178 185 204 221 229 220 208 219 234 230 229 223 209 210 210 212 223 228 249 255 256 282 268 217 239 259 272 310 304 329 4 271 284 294 293 310 325 314 299 293 285 283 275 261 264 265 260 275 278